Overview Statistics Trail Chart Weather Telemetry Raw packets
 

This is the latest recevied weather packets stored in our database for station/object N0HOT. If no packets are shown the sender has not sent any weather packets the latest 10 day(s).

<< 44 45 46 47 48 49 50 >>
Time Temp. Humidity Pressure Rain* Wind** Luminosity Snow
1788355443 19.44° C 89% 1013.9 hPa 0 mm - 72 W/m² -
1788355138 19.44° C 89% 1014.3 hPa 0 mm - 63 W/m² -
1788354835 19.44° C 89% 1013.9 hPa 0 mm - 49 W/m² -
1788354534 18.89° C 89% 1013.9 hPa 0 mm - 44 W/m² -
1788354230 18.89° C 89% 1014.3 hPa 0 mm - 45 W/m² -
1788353925 18.89° C 89% 1014.3 hPa 0 mm - 46 W/m² -
1788353621 18.89° C 89% 1014.3 hPa 0 mm - 37 W/m² -
1788353317 18.89° C 89% 1013.9 hPa 0 mm - 26 W/m² -
1788353013 18.89° C 89% 1014.3 hPa 0 mm - 28 W/m² -
1788352707 18.89° C 89% 1014.3 hPa 0 mm - 26 W/m² -
1788352404 18.89° C 89% 1013.9 hPa 0 mm - 24 W/m² -
1788352102 18.89° C 89% 1013.6 hPa 0 mm - 23 W/m² -
1788351798 18.89° C 89% 1013.6 hPa 0 mm - 20 W/m² -
1788351498 18.89° C 89% 1013.6 hPa 0 mm - 17 W/m² -
1788351193 18.89° C 89% 1013.2 hPa 0 mm - 14 W/m² -
1788350888 18.89° C 89% 1013.6 hPa 0 mm - 11 W/m² -
1788350585 18.89° C 89% 1014.3 hPa 0 mm - 6 W/m² -
1788350279 18.89° C 89% 1013.9 hPa 0 mm - 4 W/m² -
1788349976 18.89° C 89% 1012.8 hPa 0 mm - 3 W/m² -
1788349672 18.89° C 89% 1012.8 hPa 0 mm - 1 W/m² -
1788349368 19.44° C 89% 1013.2 hPa 0 mm - 0 W/m² -
1788349068 19.44° C 89% 1012.5 hPa 0 mm - 0 W/m² -
1788348763 19.44° C 89% 1012.5 hPa 0 mm - 0 W/m² -
1788348462 19.44° C 89% 1012.8 hPa 1.78 mm - 0 W/m² -
1788348160 19.44° C 89% 1013.2 hPa 1.78 mm - 0 W/m² -

* Rain latest hour (hover to see other rain measurements)
** Current wind speed in m/s (hover to see current wind gust speed)